Location: Bruchhof
(51.8738°N, 9.9256°E)
Time: 21:09:53
(UTC+00:00)

USA 238 - Visible Passes

Search period start: 13 September 2024 00:00
Search period end: 23 September 2024 00:00
Orbit: 916 x 1295 km, 63.4° (Epoch: 11 August)

Date Brightness Start Highest point End Pass type
(mag) Time Alt. Az. Time Alt. Az. Time Alt. Az.
13 Sep 5.0 04:11:56 10° S 04:17:38 38° ESE 04:23:47 10° NE visible
14 Sep 5.5 03:28:08 10° SSE 03:33:07 25° ESE 03:38:25 10° ENE visible
15 Sep 5.9 02:45:03 10° SE 02:48:44 16° ESE 02:52:33 10° ENE visible
16 Sep 4.5 03:47:37 10° SSW 03:53:35 48° ESE 04:00:03 10° NE visible
17 Sep 5.0 03:03:33 10° S 03:08:59 32° ESE 03:14:50 10° NE visible
18 Sep 5.5 02:19:58 10° SSE 02:24:31 21° ESE 02:29:18 10° ENE visible
18 Sep 3.7 04:08:06 10° SW 04:14:25 84° SE 04:21:21 10° NE visible
19 Sep 5.8 01:37:25 10° SE 01:40:11 13° ESE 01:43:01 10° ENE visible
19 Sep 4.0 03:23:43 11° SSW 03:29:35 60° SE 03:36:18 10° NE visible
20 Sep 4.5 02:40:41 18° S 02:44:54 41° ESE 02:51:09 10° NE visible
21 Sep 5.1 01:57:35 20° SSE 02:00:21 27° ESE 02:05:49 10° ENE visible
21 Sep 3.6 03:45:03 15° SW 03:50:32 82° NW 03:57:32 10° NE visible
22 Sep 5.4 01:14:27 16° SE 01:15:57 18° ESE 01:20:05 10° ENE visible
22 Sep 3.7 03:01:53 26° SSW 03:05:38 73° SE 03:12:30 10° NE visible
